This is the latest recevied weather packets stored in our database for station/object KMEZ. If no packets are shown the sender has not sent any weather packets the latest 1 day(s).
| Time | Temp. | Humidity | Pressure | Rain* | Wind** | Luminosity | Snow |
|---|---|---|---|---|---|---|---|
| 1778068415 | 11.67° C | 100% | 1011.5 hPa | - | - | - | - |
| 1778067213 | 11.67° C | 100% | 1011.2 hPa | - | - | - | - |
| 1778066618 | 11.67° C | 100% | 1011.2 hPa | - | - | - | - |
| 1778066017 | 10.56° C | 100% | 1010.5 hPa | - | - | - | - |
| 1778065414 | 10.56° C | 100% | 1010.5 hPa | - | - | - | - |
| 1778064217 | 10.56° C | 100% | 1010.5 hPa | - | - | - | - |
| 1778062415 | 11.67° C | 100% | 1009.8 hPa | - | - | - | - |
| 1778061816 | 11.67° C | 100% | 1009.8 hPa | - | - | - | - |
| 1778061217 | 11.67° C | 100% | 1009.8 hPa | - | - | - | - |
| 1778060016 | 11.67° C | 100% | 1009.5 hPa | - | - | - | - |
| 1778058815 | 11.67° C | 100% | 1008.8 hPa | - | - | - | - |
| 1778057617 | 11.67° C | 100% | 1008.8 hPa | - | - | - | - |
| 1778057020 | 11.67° C | 100% | 1008.8 hPa | - | - | - | - |
| 1778056415 | 11.67° C | 100% | 1008.8 hPa | - | - | - | - |
| 1778055814 | 11.67° C | 100% | 1008.8 hPa | - | - | - | - |
| 1778054012 | 13.89° C | 100% | 1007.8 hPa | - | - | - | - |
| 1778052814 | - | - | 1007.8 hPa | - | - | - | - |
| 1778051016 | 13.89° C | 93% | 1010.2 hPa | - | - | - | - |
| 1778050411 | 15° C | 87% | 1007.5 hPa | - | - | - | - |
| 1778049812 | 15.56° C | 87% | 1007.8 hPa | - | - | - | - |
| 1778048614 | 15.56° C | 87% | 1007.8 hPa | - | - | - | - |
| 1778048013 | 15.56° C | 87% | 1007.8 hPa | - | - | - | - |
| 1778047418 | 15.56° C | 87% | 1007.8 hPa | - | - | - | - |
| 1778046815 | 16.67° C | 88% | 1007.8 hPa | - | - | - | - |
| 1778046219 | 16.67° C | 88% | 1007.8 hPa | - | - | - | - |
* Rain since midnight (hover to see other rain measurements)
** Current wind speed in m/s (hover to see current wind gust speed)